Lid_Strength_Index
3 4 5 5 5 4 4 3 3 3 2 2 2 2 2 1 2 7 10 7 4 1 1 5 8 9 9 10 10 12 15 17 17 16 16 13 14 12 11 12 11 11 11 10 9
2 3 3 4 4 4 4 4 3 3 3 3 2 2 2 2 5 9 4 3 2 1 7 9 10 9 11 12 12 14 17 16 15 15 15 14 14 13 13 13 13 12 11 10 10
2 2 2 3 4 4 4 4 4 3 3 3 3 3 2 3 9 9 3 2 1 1 7 8 8 10 12 13 13 15 17 15 13 13 13 14 14 13 14 14 13 12 11 11 11
1 2 2 3 3 3 4 4 4 4 3 3 3 3 2 6 14 8 2 2 1 4 7 9 10 12 14 14 13 16 14 13 12 12 13 14 13 14 13 12 12 11 11 11 11
1 1 2 2 3 3 3 4 4 4 4 3 3 3 5 10 10 7 3 4 6 7 9 10 11 12 14 14 14 15 14 13 12 12 13 12 13 14 14 12 11 11 11 11 11
2 1 2 2 2 2 2 3 3 4 3 3 3 3 8 14 7 7 7 6 6 8 9 9 11 11 13 13 14 14 13 13 13 13 13 14 14 13 13 12 12 12 12 11 11
2 2 2 2 2 2 2 2 2 3 3 4 4 5 10 12 8 8 7 7 7 7 9 8 9 11 12 14 12 13 15 14 14 13 14 14 15 15 13 13 13 12 12 11 11
2 2 3 3 3 3 2 2 2 2 2 3 4 8 14 8 8 8 7 8 7 7 8 8 9 10 11 12 13 15 16 18 15 13 13 15 17 15 14 13 13 13 12 12 12
1 2 2 3 3 4 3 3 2 2 2 3 8 11 15 7 10 8 8 9 8 8 8 7 9 12 12 16 18 17 20 19 16 13 14 15 17 15 14 14 14 13 12 12 12
3 2 2 2 3 3 4 3 4 3 4 5 6 13 11 12 10 9 9 8 9 10 11 11 13 15 15 17 20 20 19 18 18 16 15 16 16 13 13 14 14 14 13 12 12
4 4 2 2 2 3 6 9 13 12 10 14 13 12 10 8 8 10 9 10 10 12 16 14 16 19 17 16 16 17 18 19 17 15 16 17 16 15 14 14 14 14 13 13 12
5 4 4 3 2 4 7 10 12 13 16 13 11 11 10 8 11 9 8 12 13 16 14 15 17 16 15 15 16 17 19 19 17 16 16 17 17 15 15 16 15 15 14 13 13
6 5 4 4 3 5 8 9 8 10 17 16 13 12 11 10 12 12 10 12 16 16 16 17 16 14 15 16 17 18 19 20 19 17 17 19 18 18 16 15 14 15 14 13 13
6 6 5 2 6 7 8 7 8 9 15 15 15 14 12 11 14 10 10 12 15 16 16 17 15 15 16 16 16 19 17 17 18 19 22 19 22 19 18 17 15 15 15 14 13
6 6 6 4 7 8 8 7 7 8 20 15 16 11 12 15 14 13 10 12 16 16 16 18 17 17 18 17 16 18 17 18 18 19 21 21 23 19 19 18 17 15 15 15 14
6 6 6 6 7 8 7 8 7 15 20 17 15 15 15 14 14 13 13 12 14 16 17 18 16 16 17 17 17 16 17 18 19 20 24 23 23 20 21 18 18 16 15 15 15
5 7 7 6 8 7 7 7 16 18 14 17 17 15 16 16 15 15 15 16 18 20 20 18 18 17 16 18 16 17 19 23 24 24 22 21 22 19 17 16 16 16 15 15 15
5 5 7 6 7 7 7 13 18 15 15 15 15 16 17 15 15 15 16 18 16 18 19 20 22 18 16 17 18 19 19 22 25 25 23 20 22 18 17 16 15 15 15 15 15
5 6 5 7 7 7 10 16 15 15 13 15 16 18 18 16 15 16 17 18 16 16 18 20 20 17 17 16 17 19 20 19 22 26 24 22 20 18 18 17 17 16 16 16 16
8 8 6 5 6 8 12 14 14 11 13 14 15 16 19 18 17 17 17 16 16 15 16 17 20 18 17 16 17 18 18 22 23 26 26 22 22 20 18 18 17 17 17 16 17
8 9 6 3 5 10 15 14 14 11 11 14 14 16 16 18 18 18 17 15 14 15 15 16 17 19 18 19 19 19 20 20 21 22 23 25 20 18 18 18 17 17 16 16 17
9 14 5 3 12 13 14 13 11 11 11 11 12 13 16 16 17 18 18 16 14 14 16 16 18 21 20 18 18 19 19 20 22 23 23 22 21 17 17 18 17 16 16 16 17
15 11 7 5 14 14 13 13 12 11 11 11 12 12 13 15 17 16 16 14 14 14 15 15 20 24 21 19 19 19 19 19 20 21 23 23 21 17 18 18 17 17 17 16 17
10 15 13 8 10 13 13 14 13 10 11 10 10 11 13 15 14 16 16 15 13 14 12 13 18 18 19 18 19 20 19 19 19 23 21 22 19 17 18 18 17 17 17 16 17
12 13 11 14 13 15 13 14 14 14 12 10 11 11 12 15 15 16 15 16 14 12 14 15 20 19 19 19 18 19 19 19 20 18 20 19 19 15 15 16 16 16 16 16 16
17 11 13 15 11 14 13 16 15 16 14 14 13 11 11 13 13 15 14 15 15 15 15 15 19 19 20 18 19 20 19 19 18 18 19 18 18 14 15 16 16 16 16 16 16
9 7 10 14 14 15 13 15 16 15 13 13 14 14 13 11 10 10 11 12 13 14 15 15 19 19 20 20 21 19 19 18 18 18 17 20 15 15 16 16 15 15 15 16 15